RYR8SF EPSC-EGGP

Flight info

Callsign RYR8SF
Flight time 1h 20m
Altitude 38000
Route BINKA L23 HAM M170 ELSOB DCT MIMVA DCT OTBED Y70 POL
Aircraft B738/M-SDE2E3FGHIRWXY/LB1

Departure

Time 2026-05-04 18:52
Airport Solidarity Szczecin–Goleniów Airport (EPSC)

Arrival

Time 2026-05-04 20:13
Airport Liverpool John Lennon Airport (EGGP)
Time Latitude Longitude Altitude Speed Heading
2026-05-04 18:27 53.59245 14.89392 141 ft 0 kts 47°
2026-05-04 18:46 53.59245 14.89394 141 ft 1 kts 52°
2026-05-04 18:46 53.59235 14.89418 141 ft 5 kts 166°
2026-05-04 18:46 53.59195 14.89372 141 ft 9 kts 211°
2026-05-04 18:46 53.59135 14.89370 141 ft 9 kts 154°
2026-05-04 18:47 53.59083 14.89460 141 ft 13 kts 130°
2026-05-04 18:47 53.59008 14.89607 140 ft 19 kts 131°
2026-05-04 18:47 53.58916 14.89783 139 ft 21 kts 131°
2026-05-04 18:47 53.58815 14.89979 139 ft 23 kts 130°
2026-05-04 18:48 53.58711 14.90185 140 ft 23 kts 131°
2026-05-04 18:48 53.58602 14.90395 141 ft 24 kts 131°
2026-05-04 18:48 53.58490 14.90615 143 ft 26 kts 131°
2026-05-04 18:48 53.58369 14.90847 145 ft 26 kts 130°
2026-05-04 18:49 53.58255 14.91073 150 ft 24 kts 132°
2026-05-04 18:49 53.58143 14.91288 155 ft 26 kts 131°
2026-05-04 18:49 53.58019 14.91530 160 ft 28 kts 131°
2026-05-04 18:49 53.57911 14.91742 162 ft 15 kts 131°
2026-05-04 18:50 53.57839 14.91762 162 ft 9 kts 218°
2026-05-04 18:50 53.57826 14.91743 162 ft 0 kts 220°
2026-05-04 18:51 53.57814 14.91725 162 ft 6 kts 220°
2026-05-04 18:51 53.57765 14.91653 162 ft 4 kts 229°
2026-05-04 18:52 53.57772 14.91589 163 ft 14 kts 305°
2026-05-04 18:52 53.57993 14.91160 157 ft 92 kts 311°
2026-05-04 18:52 53.58589 14.89998 219 ft 160 kts 311°
2026-05-04 18:52 53.59355 14.88487 888 ft 181 kts 312°
2026-05-04 18:53 53.60234 14.86796 1657 ft 196 kts 311°
2026-05-04 18:53 53.61155 14.85031 2383 ft 205 kts 310°
2026-05-04 18:53 53.62131 14.83156 2956 ft 222 kts 309°
2026-05-04 18:53 53.63181 14.81102 3552 ft 235 kts 309°
2026-05-04 18:54 53.64250 14.79013 4481 ft 239 kts 307°
2026-05-04 18:54 53.65108 14.76541 5263 ft 249 kts 289°
2026-05-04 18:54 53.65714 14.73775 6336 ft 253 kts 288°
2026-05-04 18:54 53.66321 14.70983 7411 ft 254 kts 288°
2026-05-04 18:55 53.66939 14.68166 8451 ft 259 kts 287°
2026-05-04 18:55 53.68208 14.62388 10412 ft 270 kts 287°
2026-05-04 18:55 53.68895 14.59267 10715 ft 300 kts 288°
2026-05-04 18:56 53.69656 14.55816 10948 ft 328 kts 288°
2026-05-04 18:56 53.70475 14.52125 11525 ft 341 kts 288°
2026-05-04 18:56 53.71315 14.48346 12362 ft 347 kts 288°
2026-05-04 18:56 53.72170 14.44499 13257 ft 352 kts 288°
2026-05-04 18:57 53.73036 14.40594 14142 ft 357 kts 288°
2026-05-04 18:57 53.73910 14.36646 15022 ft 361 kts 288°
2026-05-04 18:57 53.74789 14.32659 15966 ft 363 kts 288°
2026-05-04 18:57 53.75654 14.28641 16886 ft 365 kts 285°
2026-05-04 18:58 53.76032 14.24418 17750 ft 366 kts 269°
2026-05-04 18:58 53.76027 14.20099 18613 ft 369 kts 268°
2026-05-04 18:58 53.76026 14.15751 19408 ft 371 kts 269°
2026-05-04 18:58 53.76036 14.11380 20170 ft 374 kts 269°
2026-05-04 18:59 53.76054 14.06971 20912 ft 377 kts 269°
2026-05-04 18:59 53.76078 14.02525 21642 ft 380 kts 269°
2026-05-04 18:59 53.76104 13.98033 22351 ft 383 kts 269°
2026-05-04 18:59 53.76130 13.93511 23045 ft 387 kts 269°
2026-05-04 19:00 53.76156 13.88950 23679 ft 390 kts 269°
2026-05-04 19:00 53.76179 13.84340 24233 ft 393 kts 269°
2026-05-04 19:00 53.76200 13.79717 24811 ft 395 kts 268°
2026-05-04 19:00 53.76208 13.75067 25391 ft 396 kts 268°
2026-05-04 19:01 53.76205 13.70408 25947 ft 398 kts 268°
2026-05-04 19:01 53.76223 13.65713 26481 ft 400 kts 269°
2026-05-04 19:01 53.76260 13.61007 26999 ft 402 kts 269°
2026-05-04 19:01 53.76297 13.56265 27500 ft 404 kts 269°
2026-05-04 19:02 53.76286 13.51513 27980 ft 406 kts 267°
2026-05-04 19:02 53.76210 13.46743 28450 ft 407 kts 266°
2026-05-04 19:02 53.76133 13.41939 28919 ft 409 kts 267°
2026-05-04 19:02 53.76073 13.37139 29500 ft 408 kts 267°
2026-05-04 19:03 53.76020 13.32375 30218 ft 403 kts 267°
2026-05-04 19:03 53.75968 13.27656 30789 ft 400 kts 267°
2026-05-04 19:03 53.75913 13.22934 31081 ft 405 kts 267°
2026-05-04 19:03 53.75855 13.18157 31423 ft 407 kts 267°
2026-05-04 19:04 53.75795 13.13392 31973 ft 404 kts 267°
2026-05-04 19:04 53.75733 13.08655 32552 ft 401 kts 267°
2026-05-04 19:04 53.75669 13.03952 33055 ft 400 kts 267°
2026-05-04 19:04 53.75603 12.99242 33513 ft 400 kts 268°
2026-05-04 19:05 53.75536 12.94549 33977 ft 400 kts 268°
2026-05-04 19:05 53.75467 12.89862 34353 ft 400 kts 268°
2026-05-04 19:05 53.75397 12.85151 34658 ft 402 kts 268°
2026-05-04 19:05 53.75323 12.80413 34955 ft 404 kts 268°
2026-05-04 19:06 53.75255 12.75670 35297 ft 404 kts 268°
2026-05-04 19:06 53.75202 12.70920 35634 ft 405 kts 268°
2026-05-04 19:06 53.75152 12.66144 35937 ft 407 kts 268°
2026-05-04 19:06 53.75093 12.61363 36249 ft 408 kts 268°
2026-05-04 19:07 53.75031 12.56553 36544 ft 410 kts 268°
2026-05-04 19:07 53.74966 12.51719 36775 ft 413 kts 268°
2026-05-04 19:07 53.74898 12.46856 37104 ft 414 kts 268°
2026-05-04 19:07 53.74808 12.41995 37410 ft 415 kts 267°
2026-05-04 19:08 53.74695 12.37120 37698 ft 416 kts 267°
2026-05-04 19:08 53.74576 12.32221 37980 ft 418 kts 266°
2026-05-04 19:08 53.74337 12.22313 37964 ft 423 kts 267°
2026-05-04 19:09 53.74099 12.12459 37957 ft 416 kts 267°
2026-05-04 19:09 53.73896 12.02705 37977 ft 416 kts 267°
2026-05-04 19:10 53.73581 11.92947 37972 ft 417 kts 265°
2026-05-04 19:10 53.73189 11.83172 37968 ft 418 kts 265°
2026-05-04 19:11 53.72796 11.73370 37967 ft 419 kts 265°
2026-05-04 19:11 53.72410 11.63609 37965 ft 420 kts 265°
2026-05-04 19:12 53.71821 11.48843 37972 ft 421 kts 265°
2026-05-04 19:13 53.71418 11.38987 37963 ft 422 kts 265°
2026-05-04 19:13 53.71006 11.29100 37946 ft 422 kts 265°
2026-05-04 19:14 53.70587 11.19241 37958 ft 421 kts 265°
2026-05-04 19:14 53.70161 11.09400 37966 ft 420 kts 265°
2026-05-04 19:15 53.69726 10.99555 37965 ft 420 kts 265°
2026-05-04 19:15 53.69284 10.89740 37963 ft 420 kts 265°
2026-05-04 19:16 53.68833 10.79914 37968 ft 420 kts 264°
2026-05-04 19:16 53.68374 10.70083 37967 ft 421 kts 264°
2026-05-04 19:17 53.67907 10.60246 37968 ft 421 kts 264°
2026-05-04 19:17 53.67431 10.50399 37966 ft 421 kts 264°
2026-05-04 19:18 53.66947 10.40544 37978 ft 422 kts 264°
2026-05-04 19:18 53.66453 10.30677 37987 ft 423 kts 264°
2026-05-04 19:19 53.65951 10.20799 37991 ft 423 kts 264°
2026-05-04 19:19 53.65440 10.10904 37995 ft 423 kts 264°
2026-05-04 19:20 53.64921 10.01025 37994 ft 423 kts 264°
2026-05-04 19:20 53.64394 9.91138 37992 ft 424 kts 264°
2026-05-04 19:21 53.63858 9.81254 37992 ft 423 kts 264°
2026-05-04 19:21 53.63315 9.71375 37991 ft 423 kts 264°
2026-05-04 19:22 53.62764 9.61503 37989 ft 423 kts 264°
2026-05-04 19:22 53.62205 9.51645 37986 ft 423 kts 264°
2026-05-04 19:23 53.61638 9.41789 37974 ft 422 kts 263°
2026-05-04 19:23 53.61157 9.33534 37983 ft 422 kts 263°
2026-05-04 19:24 53.60576 9.23702 37978 ft 422 kts 263°
2026-05-04 19:24 53.59986 9.13860 37987 ft 422 kts 263°
2026-05-04 19:25 53.59393 9.04085 37988 ft 423 kts 263°
2026-05-04 19:25 53.58786 8.94229 37992 ft 423 kts 263°
2026-05-04 19:26 53.58171 8.84381 37993 ft 423 kts 263°
2026-05-04 19:26 53.57549 8.74540 37998 ft 424 kts 263°
2026-05-04 19:27 53.56917 8.64680 37991 ft 424 kts 263°
2026-05-04 19:27 53.56276 8.54817 37993 ft 424 kts 263°
2026-05-04 19:28 53.55628 8.44956 37998 ft 424 kts 263°
2026-05-04 19:28 53.54971 8.35096 38001 ft 424 kts 263°
2026-05-04 19:29 53.54306 8.25241 38008 ft 424 kts 263°
2026-05-04 19:29 53.53633 8.15386 38012 ft 424 kts 262°
2026-05-04 19:30 53.52952 8.05536 38011 ft 424 kts 262°
2026-05-04 19:30 53.52264 7.95702 38020 ft 424 kts 262°
2026-05-04 19:31 53.51566 7.85851 38030 ft 424 kts 262°
2026-05-04 19:31 53.50866 7.76080 38036 ft 424 kts 262°
2026-05-04 19:32 53.50152 7.66239 38014 ft 425 kts 262°
2026-05-04 19:32 53.49430 7.56402 38015 ft 425 kts 262°
2026-05-04 19:33 53.48699 7.46543 38011 ft 425 kts 262°
2026-05-04 19:33 53.47960 7.36702 38011 ft 425 kts 262°
2026-05-04 19:34 53.47212 7.26843 38013 ft 426 kts 262°
2026-05-04 19:34 53.46455 7.16978 38002 ft 426 kts 261°
2026-05-04 19:35 53.45688 7.07107 38004 ft 427 kts 261°
2026-05-04 19:35 53.44914 6.97232 38008 ft 427 kts 261°
2026-05-04 19:36 53.44130 6.87354 38012 ft 427 kts 261°
2026-05-04 19:36 53.43338 6.77477 38020 ft 427 kts 261°
2026-05-04 19:37 53.42538 6.67602 38025 ft 427 kts 261°
2026-05-04 19:37 53.41734 6.57778 38019 ft 428 kts 261°
2026-05-04 19:38 53.40917 6.47907 38022 ft 428 kts 261°
2026-05-04 19:38 53.40091 6.38024 38022 ft 428 kts 261°
2026-05-04 19:39 53.39251 6.28079 38017 ft 428 kts 261°
2026-05-04 19:39 53.38414 6.18270 38015 ft 428 kts 261°
2026-05-04 19:40 53.37563 6.08389 38025 ft 429 kts 261°
2026-05-04 19:40 53.36697 5.98435 38021 ft 429 kts 261°
2026-05-04 19:41 53.35833 5.88612 38024 ft 430 kts 260°
2026-05-04 19:41 53.34956 5.78730 38023 ft 430 kts 260°
2026-05-04 19:42 53.34070 5.68837 38019 ft 430 kts 260°
2026-05-04 19:42 53.33174 5.58936 38032 ft 430 kts 260°
2026-05-04 19:43 53.32269 5.49029 38031 ft 431 kts 260°
2026-05-04 19:43 53.31355 5.39123 38028 ft 431 kts 260°
2026-05-04 19:44 53.30433 5.29212 38027 ft 432 kts 260°
2026-05-04 19:44 53.29501 5.19296 38025 ft 432 kts 260°
2026-05-04 19:45 53.28562 5.09389 38026 ft 432 kts 260°
2026-05-04 19:45 53.27613 4.99474 38023 ft 433 kts 260°
2026-05-04 19:46 53.26653 4.89533 38025 ft 433 kts 260°
2026-05-04 19:46 53.25686 4.79606 38022 ft 433 kts 260°
2026-05-04 19:47 53.24709 4.69675 38023 ft 433 kts 259°
2026-05-04 19:47 53.23725 4.59748 38044 ft 433 kts 259°
2026-05-04 19:48 53.22732 4.49828 38047 ft 433 kts 259°
2026-05-04 19:48 53.21517 4.37799 38045 ft 433 kts 259°
2026-05-04 19:49 53.13558 3.61696 38054 ft 433 kts 258°
2026-05-04 19:49 53.10233 3.28859 38031 ft 435 kts 269°
2026-05-04 19:50 53.13368 2.83505 38032 ft 439 kts 275°
2026-05-04 19:50 53.18505 2.02466 38067 ft 441 kts 275°
2026-05-04 19:51 53.23157 1.20596 38068 ft 444 kts 274°
2026-05-04 19:51 53.27292 0.37414 38050 ft 447 kts 274°
2026-05-04 19:52 53.29156 0.03028 38055 ft 449 kts 284°
2026-05-04 19:52 53.37167 -0.33182 38047 ft 451 kts 289°
2026-05-04 19:53 53.49637 -0.91113 38036 ft 448 kts 289°
2026-05-04 19:53 53.50670 -0.95934 37998 ft 431 kts 289°
2026-05-04 19:53 53.51668 -1.00606 37792 ft 421 kts 289°
2026-05-04 19:53 53.52649 -1.05217 37347 ft 417 kts 289°
2026-05-04 19:54 53.53630 -1.09840 36417 ft 425 kts 290°
2026-05-04 19:54 53.54638 -1.14601 35284 ft 438 kts 290°
2026-05-04 19:54 53.55670 -1.19485 34217 ft 449 kts 291°
2026-05-04 19:54 53.56724 -1.24487 33044 ft 457 kts 291°
2026-05-04 19:55 53.57795 -1.29555 32182 ft 459 kts 290°
2026-05-04 19:55 53.58850 -1.34571 31542 ft 453 kts 291°
2026-05-04 19:55 53.59881 -1.39530 31019 ft 444 kts 291°
2026-05-04 19:55 53.60898 -1.44415 30510 ft 442 kts 290°
2026-05-04 19:56 53.61921 -1.49343 30024 ft 451 kts 290°
2026-05-04 19:56 53.62952 -1.54308 29414 ft 446 kts 290°
2026-05-04 19:56 53.63964 -1.59200 28873 ft 437 kts 290°
2026-05-04 19:56 53.64955 -1.63999 28180 ft 433 kts 290°
2026-05-04 19:57 53.65948 -1.68811 27249 ft 436 kts 290°
2026-05-04 19:57 53.66942 -1.73640 26353 ft 436 kts 290°
2026-05-04 19:57 53.67932 -1.78467 25480 ft 435 kts 290°
2026-05-04 19:57 53.68920 -1.83296 24637 ft 434 kts 289°
2026-05-04 19:58 53.69900 -1.88101 23831 ft 432 kts 289°
2026-05-04 19:58 53.70874 -1.92881 22894 ft 430 kts 289°
2026-05-04 19:58 53.71843 -1.97645 21969 ft 427 kts 289°
2026-05-04 19:58 53.72800 -2.02367 21058 ft 423 kts 288°
2026-05-04 19:59 53.73547 -2.07134 20150 ft 419 kts 275°
2026-05-04 19:59 53.73379 -2.11988 19316 ft 413 kts 258°
2026-05-04 19:59 53.72430 -2.16525 18483 ft 408 kts 243°
2026-05-04 19:59 53.71078 -2.20648 17551 ft 394 kts 240°
2026-05-04 20:00 53.69724 -2.24573 16653 ft 381 kts 239°
2026-05-04 20:00 53.68402 -2.28373 15749 ft 370 kts 240°
2026-05-04 20:00 53.67123 -2.32070 14886 ft 361 kts 240°
2026-05-04 20:00 53.65883 -2.35691 14048 ft 352 kts 240°
2026-05-04 20:01 53.64675 -2.39228 13146 ft 345 kts 240°
2026-05-04 20:01 53.63491 -2.42706 12231 ft 339 kts 241°
2026-05-04 20:01 53.62329 -2.46119 11357 ft 333 kts 241°
2026-05-04 20:01 53.61187 -2.49479 10494 ft 328 kts 241°
2026-05-04 20:02 53.60058 -2.52790 9791 ft 320 kts 241°
2026-05-04 20:02 53.58971 -2.55987 9128 ft 312 kts 241°
2026-05-04 20:02 53.57895 -2.59143 8472 ft 309 kts 241°
2026-05-04 20:02 53.56836 -2.62251 7839 ft 303 kts 242°
2026-05-04 20:03 53.55705 -2.65192 7195 ft 297 kts 229°
2026-05-04 20:03 53.54067 -2.67165 6600 ft 295 kts 204°
2026-05-04 20:03 53.52071 -2.67758 6025 ft 293 kts 179°
2026-05-04 20:03 53.50128 -2.66838 5424 ft 292 kts 152°
2026-05-04 20:04 53.48656 -2.64605 5024 ft 283 kts 124°
2026-05-04 20:04 53.47970 -2.61575 4778 ft 276 kts 96°
2026-05-04 20:04 53.48052 -2.58406 4536 ft 269 kts 82°
2026-05-04 20:04 53.48323 -2.55323 4275 ft 265 kts 80°
2026-05-04 20:05 53.48603 -2.52302 4009 ft 262 kts 80°
2026-05-04 20:05 53.48752 -2.49288 3729 ft 259 kts 96°
2026-05-04 20:05 53.48118 -2.46503 3480 ft 256 kts 127°
2026-05-04 20:05 53.46773 -2.44630 3230 ft 252 kts 156°
2026-05-04 20:06 53.45096 -2.44002 3033 ft 241 kts 175°
2026-05-04 20:06 53.43475 -2.43707 3002 ft 229 kts 175°
2026-05-04 20:06 53.41912 -2.43425 2850 ft 224 kts 178°
2026-05-04 20:06 53.40452 -2.43930 2626 ft 216 kts 212°
2026-05-04 20:07 53.39290 -2.45444 2484 ft 208 kts 222°
2026-05-04 20:07 53.38176 -2.46984 2295 ft 207 kts 221°
2026-05-04 20:07 53.37092 -2.48569 2122 ft 206 kts 230°
2026-05-04 20:07 53.36120 -2.50338 2023 ft 207 kts 230°
2026-05-04 20:08 53.35150 -2.52105 1999 ft 204 kts 235°
2026-05-04 20:08 53.34687 -2.54248 1999 ft 196 kts 275°
2026-05-04 20:08 53.34819 -2.56512 1991 ft 198 kts 269°
2026-05-04 20:08 53.34554 -2.58720 1990 ft 185 kts 263°
2026-05-04 20:09 53.34494 -2.60720 1991 ft 165 kts 273°
2026-05-04 20:09 53.34420 -2.62580 1982 ft 157 kts 270°
2026-05-04 20:09 53.34329 -2.64391 2003 ft 156 kts 270°
2026-05-04 20:09 53.34241 -2.66226 1998 ft 158 kts 270°
2026-05-04 20:10 53.34155 -2.68008 1905 ft 150 kts 270°
2026-05-04 20:10 53.34088 -2.69178 1787 ft 154 kts 269°
2026-05-04 20:10 53.33986 -2.70898 1638 ft 142 kts 271°
2026-05-04 20:10 53.33938 -2.72557 1486 ft 147 kts 270°
2026-05-04 20:11 53.33855 -2.74278 1334 ft 148 kts 268°
2026-05-04 20:11 53.33753 -2.75994 1052 ft 148 kts 270°
2026-05-04 20:11 53.33693 -2.77653 794 ft 138 kts 270°
2026-05-04 20:11 53.33625 -2.79228 609 ft 141 kts 270°
2026-05-04 20:12 53.33549 -2.80878 427 ft 143 kts 269°
2026-05-04 20:12 53.33474 -2.82532 216 ft 141 kts 270°
2026-05-04 20:12 53.33400 -2.84154 79 ft 133 kts 265°
2026-05-04 20:12 53.33341 -2.85526 80 ft 100 kts 265°
2026-05-04 20:13 53.33309 -2.86199 67 ft 25 kts 265°
2026-05-04 20:13 53.33330 -2.86394 70 ft 15 kts 315°
2026-05-04 20:13 53.33424 -2.86436 80 ft 6 kts 359°
2026-05-04 20:13 53.33456 -2.86403 87 ft 6 kts 57°
2026-05-04 20:14 53.33468 -2.86293 87 ft 14 kts 85°
2026-05-04 20:14 53.33478 -2.86090 83 ft 20 kts 85°
2026-05-04 20:14 53.33484 -2.85969 87 ft 8 kts 84°
2026-05-04 20:14 53.33515 -2.85936 86 ft 6 kts 359°
2026-05-04 20:15 53.33561 -2.85939 86 ft 7 kts 358°
2026-05-04 20:15 53.33589 -2.85913 87 ft 3 kts 59°
2026-05-04 20:15 53.33595 -2.85878 88 ft 4 kts 77°
2026-05-04 20:15 53.33602 -2.85810 87 ft 5 kts 72°
2026-05-04 20:16 53.33631 -2.85792 84 ft 2 kts 356°
2026-05-04 20:16 53.33643 -2.85793 84 ft 2 kts 358°
2026-05-04 20:16 53.33651 -2.85793 84 ft 0 kts 355°